#timestamp,LO_Frequency,Hit,StdDev 
1599044415.0,286046999.6,N
1599044415.9,286046999.6,N
1599044435.8,286046997.8,N
1599044455.6,286046997.8,N
1599044475.5,286046996.8,N
1599044495.3,286046995.9,N
1599044515.1,286046993.4,Y
1599044535.9,286046996.2,P
1599044555.7,286046997.5,N
1599044575.6,286046997.1,N
1599044595.4,286046999.3,N
1599044615.2,286046999.6,N
1599044635.1,286046998.9,N
1599044636.0,286046998.9,N
1599044655.8,286046999.7,N
1599044675.6,286047000.5,N
1599044695.5,286047000.6,N
1599044715.3,286047000.5,N
1599044735.2,286046999.2,N
1599044755.9,286046997.2,N
1599044775.7,286046998.0,N
1599044795.6,286046998.7,N
1599044815.4,286046999.5,N
1599044835.2,286046997.2,N
1599044855.1,286046998.4,N
1599044856.0,286046998.4,N
1599044875.8,286047000.8,N
1599044895.7,286046999.4,N
1599044915.5,286047002.4,N
1599044935.3,286047000.1,N
1599044955.2,286047002.1,N
1599044975.0,286047002.4,N
1599044975.9,286047002.4,N
1599044995.7,286047003.9,N
1599045015.6,286047000.3,N
1599045035.4,286047004.0,N
1599045055.3,286047003.7,N
1599045075.1,286047002.7,N
1599045076.0,286047002.7,N
1599045095.8,286047000.9,N
1599045115.7,286047000.8,N
1599045135.5,286046999.6,N
1599045155.3,286046997.0,N
1599045175.2,286046999.1,N
1599045195.0,286046999.6,N
1599045195.9,286046999.6,N
1599045215.8,286046997.9,N
1599045235.6,286046997.1,N
1599045255.4,286046998.3,N
1599045275.3,286047000.4,N
1599045295.1,286047004.4,N
1599045315.8,286047002.1,N
1599045335.7,286046998.3,N
1599045355.5,286047002.8,N
1599045375.4,286047002.6,N
1599045395.2,286047004.0,N
1599045415.0,286047001.9,N
1599045415.9,286047001.9,N
1599045435.8,286046999.8,N
1599045455.6,286047000.7,N
1599045475.4,286046998.8,N
1599045495.3,286046999.8,N
1599045515.1,286047002.4,N
1599045535.9,286047000.3,N
1599045555.7,286047002.6,N
1599045575.5,286047002.6,N
1599045595.4,286047000.1,N
1599045615.2,286047002.8,N
1599045635.0,286047000.5,N
1599045635.9,286047000.5,N
1599045655.8,286047000.6,N
1599045675.6,286046999.8,N
1599045695.5,286046998.6,N
1599045715.3,286046998.4,N
1599045735.1,286046996.6,N
1599045755.9,286046998.3,N
1599045775.7,286047000.7,N
1599045795.5,286046998.3,N
1599045815.4,286047001.0,N
1599045835.2,286046999.5,N
1599045855.1,286046998.0,N
1599045856.0,286046998.0,N
1599045875.8,286046997.0,N
1599045895.6,286046997.8,N
1599045915.5,286046998.5,N
1599045935.3,286047000.5,N
1599045955.2,286046996.7,N
1599045975.9,286046996.5,N
1599045995.7,286046995.1,N
1599046015.6,286046998.0,N
1599046035.4,286046997.3,N
1599046055.2,286046999.4,N
1599046075.1,286046998.4,N
1599046076.0,286046998.4,N
1599046095.8,286046999.0,N
1599046115.7,286046998.2,N
1599046135.5,286046996.6,N
1599046155.3,286046997.7,N
1599046175.2,286046995.1,Y
1599046195.0,286046996.7,P
1599046195.9,286046996.7,P
1599046215.8,286046995.7,P
1599046235.6,286046995.2,Y
1599046255.4,286046999.1,P
1599046275.3,286047000.2,N
1599046295.1,286047001.0,N
1599046315.9,286047001.7,N
1599046335.7,286047003.6,N
1599046355.5,286047002.6,N
1599046375.4,286047002.5,N
1599046395.2,286047001.4,N
1599046415.0,286047003.1,N
1599046415.9,286047003.1,N
1599046435.8,286047007.4,Y
1599046455.6,286047011.9,P
1599046475.5,286047007.6,N
1599046495.3,286047005.5,N
1599046515.1,286047004.9,N
1599046535.9,286047005.6,N
1599046555.7,286047007.2,N
1599046575.5,286047001.8,N
1599046595.4,286047002.3,N
1599046615.2,286046999.8,N
1599046635.0,286047001.6,N
1599046636.0,286047001.6,N
1599046655.8,286046999.9,N
1599046675.6,286047002.2,N
1599046695.5,286047002.4,N
1599046715.3,286047001.0,N
1599046735.1,286047000.0,N
1599046755.9,286046999.1,N
1599046775.7,286046998.6,N
1599046795.6,286046999.4,N
1599046815.4,286047000.5,N
1599046835.2,286046998.2,N
1599046855.1,286046998.6,N
1599046856.0,286046998.6,N
1599046875.8,286046998.7,N
1599046895.6,286047000.6,N
1599046915.5,286047002.1,N
1599046935.3,286047000.2,N
1599046955.2,286047001.0,N
1599046975.9,286047001.1,N
1599046995.7,286046996.6,N
1599047015.6,286046999.4,N
1599047035.4,286046999.4,N
1599047055.2,286046996.5,N
1599047075.1,286046997.5,N
1599047076.0,286046997.5,N
1599047095.8,286046999.6,N
1599047115.7,286046998.5,N
1599047135.5,286046998.1,N
1599047155.3,286047001.0,N
1599047175.2,286047000.3,N
1599047195.0,286047002.2,N
1599047195.9,286047002.2,N
1599047215.7,286046999.8,N
1599047235.6,286046999.7,N
1599047255.4,286046999.0,N
1599047275.3,286046999.5,N
1599047295.1,286046998.6,N
1599047296.0,286046998.6,N
1599047315.8,286046999.1,N
1599047335.7,286047002.1,N
1599047355.5,286046999.7,N
1599047375.3,286047003.6,N
1599047395.2,286047001.6,N
1599047415.0,286047000.2,N
1599047415.9,286047000.2,N
1599047435.8,286047000.6,N
1599047455.6,286046999.2,N
1599047475.4,286046997.4,N
1599047495.3,286046997.9,N
1599047515.1,286046997.7,N
1599047535.8,286046997.2,N
1599047555.7,286046995.0,N
1599047575.5,286046995.4,N
1599047595.4,286046996.7,N
1599047615.2,286046996.5,N
1599047635.0,286046997.7,N
1599047635.9,286046997.7,N
1599047655.8,286046997.0,N
1599047675.6,286046997.6,N
1599047695.4,286046995.4,N
1599047715.3,286046997.9,N
1599047735.1,286046996.8,N
1599047755.9,286046995.2,N
1599047775.7,286046995.8,N
1599047795.5,286046997.9,N
1599047815.4,286046994.9,N
1599047835.2,286046996.8,N
1599047855.0,286046995.1,N
1599047856.0,286046995.1,N
1599047875.8,286046994.5,N
1599047895.6,286046992.4,Y
1599047915.5,286046996.8,P
1599047935.3,286046999.4,N
1599047955.1,286046999.4,N
1599047975.9,286047002.2,N
1599047995.7,286047004.0,N
